This demonstration page uses our WeatherBlox Daily Observations layout. Learn more.

Left ArrowRight Arrow

38.83388, -104.82136

Hourly Observations for August 20, 2022

Temp ( °F °C ) Dew Point ( °F °C ) Humidity (%) Winds ( mph kmh ) Pressure ( in mb ) Visibility ( mi km ) Precip ( " mm )
12:58 am 00:58 Partly Cloudy 62 16.4 47 8.4 59 59 Calm 29.41 996 10 16 0.00 0.00
1:58 am 01:58 Cloudy 60 15.8 47 8.3 61 61 WSW 3 6 29.42 996 10 16 0.00 0.00
2:58 am 02:58 Cloudy 59 15 49 9.6 70 70 Calm 29.43 997 10 16 0.00 0.00
3:58 am 03:58 Cloudy 58 14.5 50 9.9 74 74 Calm 29.46 998 10 16 0.00 0.00
4:28 am 04:28 Mostly Cloudy 57 14 50 10 77 77 Calm 29.48 998 10 16 0.00 0.00
4:58 am 04:58 Cloudy 58 14.5 51 10.7 78 78 S 3 6 29.54 1001 10 16 0.00 0.00
5:43 am 05:43 Cloudy 57 14 52 11 82 82 S 7 11 29.53 1000 10 16 0.00 0.00
5:58 am 05:58 Cloudy 57 14.1 52 11.1 82 82 S 7 11 29.52 1000 10 16 0.00 0.00
6:58 am 06:58 Cloudy 59 14.9 52 11.1 78 78 S 9 15 29.57 1001 10 16 0.00 0.00
7:03 am 07:03 Cloudy 59 15 52 11 77 77 S 10 17 29.58 1002 10 16 0.00 0.00
7:58 am 07:58 Cloudy 58 14.7 53 11.8 83 83 S 7 11 29.58 1002 10 16 0.00 0.00
8:58 am 08:58 Cloudy 57 13.8 54 12.4 91 91 S 3 6 29.59 1002 10 16 0.00 0.00
8:59 am 08:59 Cloudy with Light Rain 57 14 54 12 88 88 S 3 6 29.59 1002 10 16 0.00 0.00
9:19 am 09:19 Cloudy with Light Rain 57 14 55 13 94 94 SE 5 7 29.57 1001 10 16 0.00 0.00
9:58 am 09:58 Cloudy with Light Rain 57 13.8 57 13.8 100 100 SE 8 13 29.58 1002 10 16 0.01 0.13
10:03 am 10:03 Cloudy with Light Rain 57 14 57 14 100 100 SE 8 13 29.58 1002 10 16 0.00 0.00
10:18 am 10:18 Cloudy with Light Rain 55 13 55 13 100 100 SE 7 11 29.59 1002 5 8 0.00 0.00
10:28 am 10:28 Cloudy with Light Rain 57 14 57 14 100 100 SSE 7 11 29.56 1001 3 4 0.00 0.00
10:33 am 10:33 Cloudy with Light Rain 57 14 57 14 100 100 SSE 9 15 29.56 1001 1 2 0.00 0.00
10:38 am 10:38 Cloudy with Light Rain 57 14 57 14 100 100 SSE 9 15 29.57 1001 2 4 0.00 0.00
10:58 am 10:58 Cloudy with Light Rain 57 13.7 57 13.7 100 100 SSE 8 13 29.58 1002 4 6 0.01 0.13
11:19 am 11:19 Cloudy with Mist and Fog 57 14 57 14 100 100 SSE 8 13 29.58 1002 5 8 0.00 0.00
11:29 am 11:29 Cloudy 57 14 57 14 100 100 SSE 7 11 29.59 1002 7 11 0.00 0.00
11:44 am 11:44 Cloudy 57 14 57 14 100 100 SE 8 13 29.62 1003 9 14 0.00 0.00
11:49 am 11:49 Cloudy 57 14 57 14 100 100 SE 10 17 29.61 1003 10 16 0.00 0.00
11:58 am 11:58 Cloudy 57 14.1 57 14.1 100 100 SE 9 15 29.61 1003 10 16 0.01 0.13
12:23 pm 12:23 Cloudy 59 15 59 15 100 100 SSE 12 19 29.62 1003 10 16 0.00 0.00
12:33 pm 12:33 Cloudy 61 16 59 15 94 94 SE 14 22 29.64 1004 10 16 0.00 0.00
12:43 pm 12:43 Mostly Cloudy 59 15 57 14 94 94 SSE 14 22 29.64 1004 10 16 0.00 0.00
12:53 pm 12:53 Cloudy 59 15 55 13 88 88 SSE 13 20 29.64 1004 10 16 0.00 0.00
12:58 pm 12:58 Cloudy 60 15.3 56 13.1 87 87 SSE 14 22 29.63 1003 10 16 0.00 0.00
1:28 pm 13:28 Cloudy 61 16 55 13 82 82 SSE 12 19 29.63 1004 10 16 0.00 0.00
1:48 pm 13:48 Cloudy 61 16 54 12 77 77 S 14 22 29.64 1004 10 16 0.00 0.00
1:58 pm 13:58 Cloudy 62 16.7 54 12.2 75 75 SSE 14 22 29.65 1004 10 16 0.00 0.00
2:58 pm 14:58 Mostly Cloudy 65 18.1 54 12.1 68 68 SSE 15 24 29.68 1005 10 16 0.00 0.00
3:18 pm 15:18 Cloudy 64 18 54 12 68 68 SSE 15 24 29.66 1004 10 16 0.00 0.00
3:33 pm 15:33 Cloudy 64 18 54 12 68 68 SSE 13 20 29.65 1004 10 16 0.00 0.00
3:43 pm 15:43 Cloudy 63 17 54 12 72 72 SE 17 28 29.63 1003 10 16 0.00 0.00
4:03 pm 16:03 Cloudy 63 17 52 11 68 68 SSE 15 24 29.61 1003 10 16 0.00 0.00
4:58 pm 16:58 Cloudy 62 16.9 52 11.2 69 69 SSE 10 17 29.59 1002 10 16 0.00 0.00
5:58 pm 17:58 Cloudy with Light Rain 62 16.6 53 11.7 73 73 S 14 22 29.56 1001 10 16 0.01 0.13
6:00 pm 18:00 Cloudy 63 17 54 12 72 72 S 14 22 29.56 1001 10 16 0.00 0.00
6:10 pm 18:10 Cloudy 63 17 54 12 72 72 S 14 22 29.57 1001 10 16 0.00 0.00
6:15 pm 18:15 Cloudy with Light Rain 63 17 54 12 72 72 SSE 15 24 29.57 1001 10 16 0.00 0.00
6:36 pm 18:36 Cloudy 61 16 55 13 82 82 SSE 15 24 29.54 1000 10 16 0.00 0.00
6:58 pm 18:58 Cloudy 60 15.6 54 12.2 80 80 S 8 13 29.55 1001 10 16 0.01 0.13
7:18 pm 19:18 Cloudy 61 16 54 12 77 77 S 12 19 29.55 1001 10 16 0.00 0.00
7:58 pm 19:58 Cloudy 60 15.8 52 11.2 74 74 S 14 22 29.55 1001 10 16 0.00 0.00
8:58 pm 20:58 Clear 59 15.2 51 10.6 74 74 S 7 11 29.54 1001 10 16 0.00 0.00
9:58 pm 21:58 Cloudy 61 16 46 7.7 58 58 S 8 13 29.60 1002 10 16 0.00 0.00
10:58 pm 22:58 Mostly Cloudy 61 15.9 44 6.9 55 55 S 8 13 29.59 1002 10 16 0.00 0.00
11:58 pm 23:58 Clear 61 16 43 6.1 52 52 S 13 20 29.58 1002 10 16 0.00 0.00

Powered by AerisWeather